Weather Roundup
Issued by NWS Chicago, IL

Home | Current Version | Previous Version | Text Only | Print | Product List | Glossary On
Versions: 1 2 3 4 5 6 7 8 9 10 11 12 13 14 15 16 17 18 19 20 21 22 23 24 25 26 27 28 29 30 31 32 33 34 35 36 37 38 39 40 41 42 43 44 45 46 47 48 49 50
000
NZUS59 KLOT 022110
HRRLOT

CHICAGO AREA WEATHER ROUNDUP
NATIONAL WEATHER SERVICE CHICAGO/ROMEOVILLE IL
300 PM CST MON MAR 02 2015

NOTE: "FAIR" INDICATES FEW OR NO CLOUDS BELOW 12,000 FEET WITH NO
SIGNIFICANT WEATHER AND/OR OBSTRUCTIONS TO VISIBILITY.

* THESE STATIONS ARE NOT UNDER NWS QUALITY CONTROL. THEY ALSO MAY NOT
  REPORT WEATHER SUCH AS PRECIPITATION OR FOG.

ILZ005-006-012>014-019>023-022200-
NORTHEAST ILLINOIS

CITY           SKY/WX    TMP DP  RH WIND       PRES   REMARKS
OHARE          CLOUDY    31  11  43 VRB3      30.42F
MIDWAY         PTSUNNY   33  13  43 S6        30.43F WCI  28
AURORA         SUNNY     30  12  47 VRB3      30.43F
LANSING*       MOSUNNY   31  15  51 CALM      30.44F
JOLIET*        SUNNY     29  13  51 CALM      30.44F
WAUKEGAN       MOSUNNY   26  14  60 SE6       30.43F WCI  19
DUPAGE AIRPORT MOSUNNY   30  13  49 S6        30.42F WCI  24
WHEELING       MOSUNNY   30   9  41 S7        30.44F WCI  23
KANKAKEE*      SUNNY     27  15  60 SE6       30.46F WCI  21
MORRIS*        SUNNY     26  16  65 CALM      30.44F
LEWIS AIRPORT* SUNNY     30  14  51 CALM      30.44F
NORTHERLY IS     N/A     27  17  66 E7          N/A  WCI  20
$$

WIZ051-052-058>065-066-070>072-022200-
SOUTHEAST WISCONSIN

CITY           SKY/WX    TMP DP  RH WIND       PRES   REMARKS
MILWAUKEE      PTSUNNY   26  13  57 SE12      30.42F WCI  16
KENOSHA*       MOSUNNY   27  12  53 CALM      30.43F
RACINE*        MOSUNNY   26  10  50 SW8       30.44F WCI  18
BURLINGTON     SUNNY     26   8  44 W3        30.42S
WAUKESHA       PTSUNNY   27   5  39 W3        30.41
WEST BEND      MOSUNNY   28   9  43 CALM      30.40F
$$

INZ001>003-010>013-019-020-022200-
NORTHWEST INDIANA

CITY           SKY/WX    TMP DP  RH WIND       PRES   REMARKS
GARY*          PTSUNNY   30  16  55 NE8       30.46F WCI  23
MICHIGAN CITY* NOT AVBL
RENSSELAER*    NOT AVBL
VALPARAISO     MOSUNNY   26  12  55 S7        30.45F WCI  18
$$

LMZ740>746-022200-
SOUTHERN LAKE MICHIGAN

STATION/POSITION TIME  SKY/WX   TEMP WIND        PRES    VSBY
                                AIR  DIR/SP/G
                 (UTC)          (F)  (DEG/KT/KT) (MB)    (MI)
HARRISON CRIB    2100            25   90/  9/ 11   N/A
BURNHAM HARBOR   2100            27   90/  8       N/A
CALUMET HARBOR   2100            26   80/  8/ 10 1029.7F
BURNS HARBOR     NOT AVBL
MICHIGAN CITY    2100            31  330/  3/  4   N/A
$$

ABBREVIATIONS USED IN REMARKS
   TC - TEMPERATURE IN CELSIUS
  WCI - WIND CHILL INDEX
   HX - HEAT INDEX
  VSB - VISIBILITY
$$


USA.gov is the U.S. government's official web portal to all federal, state and local government web resources and services.